sat.trackr.live / text

‹ back to catalog

STARLINK-34530

NORAD 64491 · 2025-133V

PAYLOAD ACTIVE UNKNOWN

§ Identity

Operator
Country
US
Launch date
2025-06-23
Launch site
AFETR
Launch vehicle
Mass (kg)
RCS (m²)

Purposes: comms

External: N2YO · Heavens-Above · Gunter

§ Orbital elements

Epoch: 2026-09-20T08:15:10.398240Z

Period
93.85 min
Inclination
53.1639°
Eccentricity
0.0001097
Mean motion
15.34394990 rev/d
Perigee alt
462.0 km
Apogee alt
463.5 km
Semi-major
6,840.9 km
B*
3.4326e-4
RAAN
286.7714°
Arg perigee
76.9560°
Mean anomaly
283.1566°
Rev number
7,104

§ Raw data

STARLINK-345301 64491U 25133V   26263.34387035  .00011237  00000+0  34326-3 0  99942 64491  53.1639 286.7714 0001097  76.9560 283.1566 15.34394990 71048

JSON: /api/v1/satellites/64491 · /tle

For live sub-satellite position, see the globe view (requires WebGL).

§ Visibility from observer

Set your observer location to see the next 7 days of passes ≥ 10°. The values pass through the URL so the page stays shareable.

No JS? Fill the form by hand. The geolocation button needs JavaScript.